[[{"header":{"parameterUnit":"m.s-1","parameterCategory":1,"la1":30.2991,"la2":30.254,"lo1":-89.0895,"lo2":-89.0444,"dy":0.0017,"dx":0.0017,"nx":28,"ny":28,"refTime":"2025-12-14T03:00:00:Z","depth":0,"parameterNumber":2,"parameterNumberName":"U-component_of_WINDS"},"data":[0,0,0,0,0,0,0,0,0,0,0,0,0,0,0,0,0,0,0,0,0,0,0,0,0,0,0,0,0,0,0,0,0,0,0,0,0,0,0,0,0,0,0,0,0,0,0,0,0,0,0,0,0,0,0,0,0,0,-2.6653,-2.6653,0,-2.6722,-2.6723,-2.6724,-2.6654,-2.6652,-2.6649,-2.6646,-2.6719,-2.6723,-2.6728,0,0,0,0,0,0,0,0,0,0,0,0,0,-2.6459,-2.6463,-2.6653,-2.6653,-2.6654,-2.6722,-2.6723,-2.6724,-2.6655,-2.6651,-2.6648,-2.6645,-2.6718,-2.6723,-2.6728,0,0,0,0,0,0,0,0,0,0,0,0,0,-2.6537,-2.6464,-2.6652,-2.6628,-2.6626,-2.6722,-2.6723,-2.6724,-2.6655,-2.6651,-2.6647,-2.6643,-2.6716,-2.6722,-2.6729,-2.6853,0,0,-2.675,-2.6753,0,0,0,0,0,0,0,0,-2.6533,-2.6544,-2.6631,-2.663,-2.6628,-2.6675,-2.6682,-2.6768,-2.6657,-2.6645,-2.6646,-2.6641,-2.6708,-2.6715,-2.6737,-2.6856,-2.6859,-2.675,-2.6754,-2.6757,-2.6759,0,0,0,0,0,0,0,-2.6528,-2.6541,-2.668,-2.6632,-2.663,-2.6613,-2.662,-2.6698,-2.6698,-2.6645,-2.664,-2.6649,-2.6706,-2.6731,-2.6738,-2.6861,-2.675,-2.6756,-2.676,-2.6763,-2.7084,-2.7088,0,0,0,0,0,0,-2.6525,-2.6537,-2.6678,-2.6682,-2.6569,-2.662,-2.6627,-2.6664,-2.6697,-2.6698,-2.6653,-2.6646,-2.6721,-2.6731,-2.6741,-2.6888,-2.6757,-2.6763,-2.6767,-2.7079,-2.7085,-2.709,0,0,0,0,0,0,-2.6521,-2.6538,-2.6675,-2.6608,-2.6624,-2.6628,-2.667,-2.6668,-2.6692,-2.6703,-2.6703,-2.6678,-2.6719,-2.6731,-2.6825,-2.689,-2.6766,-2.6773,-2.7074,-2.7081,-2.7087,-2.7184,0,0,0,0,0,0,-2.6516,-2.6537,-2.6584,-2.661,-2.6628,-2.6759,-2.6674,-2.6672,-2.6704,-2.6696,-2.6727,-2.6728,-2.6716,-2.6816,-2.6832,-2.6897,-2.6778,-2.7068,-2.7077,-2.7085,-2.7175,-2.7193,-2.7209,0,0,0,0,0,-2.6509,-2.6609,-2.6587,-2.6605,-2.6688,-2.6763,-2.6773,-2.6758,-2.6709,-2.6757,-2.6764,-2.6727,-2.6879,-2.6826,-2.6844,-2.6911,-2.7064,-2.7075,-2.7084,-2.7168,-2.719,-2.7208,0,0,0,0,0,0,-2.6592,-2.6612,-2.6588,-2.67,-2.673,-2.6751,-2.6811,-2.6782,-2.6827,-2.6818,-2.6796,-2.6804,-2.6904,-2.6916,-2.6856,-2.7032,-2.6964,-2.6978,-2.7021,-2.7042,-2.7058,-2.7054,-2.6783,0,0,0,0,0,-2.6623,-2.6683,-2.6697,-2.6794,-2.681,-2.6808,-2.684,-2.6825,-2.6856,-2.6869,-2.6883,-2.6914,-2.6969,-2.7006,-2.7057,-2.7176,-2.7181,-2.7231,-2.7247,-2.7261,-2.7274,-2.7338,-2.736,-2.7123,-2.7123,-2.7122,0,0,-2.6689,-2.6707,-2.6746,-2.6811,-2.6833,-2.6895,-2.682,-2.6889,-2.6934,-2.688,-2.6969,-2.698,-2.7014,-2.7121,-2.7168,-2.7135,-2.7341,-2.7274,-2.7285,-2.7291,-2.735,-2.7373,-2.7393,-2.713,-2.7128,-2.7127,0,0,-2.684,-2.686,-2.6943,-2.6966,-2.6999,-2.6997,-2.7016,-2.7042,-2.7047,-2.7136,-2.7096,-2.715,-2.7245,-2.727,-2.7296,-2.7454,-2.7422,-2.7471,-2.756,-2.7622,-2.7641,-2.7657,-2.7714,-2.7735,-2.7484,-2.7484,-2.7484,0,-2.6918,-2.701,-2.6989,-2.7061,-2.7091,-2.7042,-2.7126,-2.7149,-2.7198,-2.722,-2.7181,-2.7298,-2.7318,-2.743,-2.7468,-2.749,-2.7512,-2.7469,-2.7639,-2.7656,-2.7671,-2.7725,-2.7747,-2.749,-2.7489,-2.7489,-2.7488,0,-2.7103,-2.7168,-2.723,-2.7278,-2.7315,-2.7392,-2.7383,-2.7422,-2.7404,-2.7405,-2.7496,-2.7517,-2.7571,-2.7596,-2.7579,-2.7706,-2.7684,-2.7642,-2.7574,-2.77,-2.775,-2.7771,-2.7498,-2.7496,-2.7495,-2.7493,0,0,-2.7312,-2.7346,-2.7369,-2.739,-2.7422,-2.7472,-2.7546,-2.7599,-2.7633,-2.7667,-2.773,-2.781,-2.7772,-2.7801,-2.7785,-2.7839,-2.7964,-2.7791,-2.7792,-2.7824,-2.8105,-2.8137,-2.8162,-2.7942,-2.7946,-2.7949,-2.8103,0,-2.7465,-2.7595,-2.7578,-2.7702,-2.7761,-2.7715,-2.778,-2.7807,-2.7809,-2.7859,-2.7862,-2.792,-2.7864,-2.7881,-2.7932,-2.7938,-2.8021,-2.7926,-2.8,-2.8003,-2.7995,-2.8188,-2.8223,-2.8367,-2.8122,-2.8126,-2.8128,0,-2.7662,-2.7703,-2.7833,-2.7855,-2.7879,-2.7938,-2.7984,-2.8033,-2.8061,-2.8059,-2.8091,-2.8065,-2.814,-2.8067,-2.817,-2.8106,-2.8134,-2.8141,-2.8147,-2.8155,-2.8075,-2.8203,-2.8413,-2.8435,-2.8159,-2.8156,-2.8154,0,-2.7802,-2.7889,-2.7979,-2.7998,-2.8026,-2.8068,-2.8082,-2.8106,-2.8139,-2.8178,-2.8199,-2.8247,-2.8274,-2.8312,-2.83,-2.8248,-2.8405,-2.8331,-2.8405,-2.8406,-2.8442,-2.8441,-2.8662,-2.8458,-2.8458,-2.8458,-2.8457,0,-2.7976,-2.8058,-2.8042,-2.8097,-2.8187,-2.8166,-2.8255,-2.8263,-2.8285,-2.8341,-2.8303,-2.8356,-2.8336,-2.8388,-2.8378,-2.8464,-2.8477,-2.8477,-2.8474,-2.8482,-2.8482,-2.8502,-2.8492,-2.8463,-2.8462,-2.8461,-2.846,0,-2.8149,-2.8142,-2.8236,-2.8254,-2.826,-2.8326,-2.8341,-2.8393,-2.8391,-2.8462,-2.8477,-2.8476,-2.8534,-2.8525,-2.859,-2.8584,-2.8692,-2.8675,-2.8682,-2.8679,-2.8754,-2.8748,-2.8997,-2.9029,-2.8804,-2.8806,-2.8808,0,-2.8262,-2.8323,-2.8347,-2.8382,-2.8398,-2.8454,-2.8486,-2.8467,-2.8502,-2.8538,-2.8586,-2.864,-2.8684,-2.8779,-2.8784,-2.8833,-2.8819,-2.8903,-2.8826,-2.8831,-2.8821,-2.8818,-2.8825,-2.8919,-2.8921,-2.8923,-2.8925,0,-2.8462,-2.8455,-2.8503,-2.855,-2.8589,-2.8625,-2.8657,-2.8687,-2.867,-2.8711,-2.877,-2.8804,-2.8869,-2.8925,-2.897,-2.8984,-2.8953,-2.8948,-2.8968,-2.8978,-2.898,-2.8981,-2.8725,-2.8944,-2.8942,-2.894,-2.8939,-2.8939,-2.8609,-2.8662,-2.8687,-2.8741,-2.8763,-2.8793,-2.8842,-2.8846,-2.8895,-2.8947,-2.8932,-2.8999,-2.9025,-2.9083,-2.9101,-2.9153,-2.9122,-2.9151,-2.9159,-2.9166,-2.9176,-2.897,-2.9161,-2.9161,-2.916,-2.916,-2.9159,0,-2.8809,-2.8822,-2.8872,-2.8918,-2.896,-2.8925,-2.8958,-2.8996,-2.9056,-2.9082,-2.9125,-2.9192,-2.9245,-2.9252,-2.9302,-2.9342,-2.9329,-2.9356,-2.9354,-2.9358,-2.92,-2.9179,-2.9366,-2.9366,-2.9366,-2.9366,-2.9366,-2.9366,-2.8918,-2.9005,-2.9,-2.9097,-2.9109,-2.9175,-2.9197,-2.9224,-2.9245,-2.9322,-2.9366,-2.937,-2.9389,-2.9439,-2.9486,-2.9486,-2.9507,-2.954,-2.9536,-2.9389,-2.9369,-2.9349,-2.9329,-2.9545,-2.9545,-2.9689,-2.969,-2.9691]},{"header":{"parameterUnit":"m.s-1","parameterCategory":1,"la1":30.2991,"la2":30.254,"lo1":-89.0895,"lo2":-89.0444,"dy":0.0017,"dx":0.0017,"nx":28,"ny":28,"refTime":"2025-12-14T03:00:00:Z","depth":0,"parameterNumber":3,"parameterNumberName":"V-component_of_WINDS"},"data":[0,0,0,0,0,0,0,0,0,0,0,0,0,0,0,0,0,0,0,0,0,0,0,0,0,0,0,0,0,0,0,0,0,0,0,0,0,0,0,0,0,0,0,0,0,0,0,0,0,0,0,0,0,0,0,0,0,0,-8.4594,-8.4596,0,-8.4721,-8.4722,-8.4723,-8.4615,-8.461,-8.4606,-8.4602,-8.4725,-8.4732,-8.474,0,0,0,0,0,0,0,0,0,0,0,0,0,-8.4253,-8.426,-8.4594,-8.4596,-8.4598,-8.472,-8.4722,-8.4724,-8.4616,-8.461,-8.4605,-8.46,-8.4723,-8.4731,-8.474,0,0,0,0,0,0,0,0,0,0,0,0,0,-8.4392,-8.4262,-8.4594,-8.4559,-8.4557,-8.472,-8.4722,-8.4724,-8.4617,-8.461,-8.4603,-8.4597,-8.472,-8.4731,-8.4742,-8.4945,0,0,-8.4776,-8.4781,0,0,0,0,0,0,0,0,-8.4385,-8.4405,-8.4562,-8.4561,-8.4559,-8.4645,-8.4647,-8.4798,-8.4619,-8.4594,-8.4602,-8.4594,-8.4704,-8.4716,-8.4754,-8.4951,-8.4956,-8.4777,-8.4784,-8.4788,-8.4792,0,0,0,0,0,0,0,-8.4375,-8.4399,-8.4644,-8.4565,-8.4563,-8.4534,-8.4546,-8.4675,-8.4685,-8.4595,-8.4588,-8.4605,-8.4701,-8.4743,-8.4756,-8.4958,-8.4776,-8.4786,-8.4793,-8.4798,-8.5325,-8.5332,0,0,0,0,0,0,-8.437,-8.4392,-8.464,-8.4648,-8.4454,-8.4546,-8.4559,-8.4624,-8.4683,-8.4686,-8.461,-8.4599,-8.4728,-8.4743,-8.476,-8.5001,-8.4788,-8.4799,-8.4805,-8.5318,-8.5327,-8.5335,0,0,0,0,0,0,-8.4363,-8.4393,-8.4635,-8.4518,-8.4546,-8.4559,-8.4632,-8.463,-8.4672,-8.4694,-8.4695,-8.4652,-8.4723,-8.4744,-8.49,-8.5003,-8.4804,-8.4814,-8.5309,-8.5321,-8.5331,-8.5485,0,0,0,0,0,0,-8.4354,-8.4391,-8.4471,-8.4521,-8.4553,-8.4775,-8.4639,-8.4638,-8.4692,-8.4679,-8.4733,-8.4736,-8.4719,-8.4884,-8.4911,-8.5015,-8.4823,-8.53,-8.5314,-8.5327,-8.5471,-8.55,-8.5525,0,0,0,0,0,-8.4342,-8.4508,-8.4475,-8.4506,-8.4653,-8.4782,-8.48,-8.4779,-8.4701,-8.478,-8.4793,-8.4734,-8.4988,-8.49,-8.493,-8.504,-8.5293,-8.531,-8.5326,-8.5458,-8.5494,-8.5524,0,0,0,0,0,0,-8.4468,-8.4514,-8.4478,-8.4665,-8.4721,-8.4763,-8.4861,-8.4818,-8.4895,-8.4879,-8.4848,-8.4861,-8.5025,-8.5047,-8.4949,-8.5238,-8.5128,-8.5151,-8.5218,-8.5252,-8.5278,-8.5269,-8.4832,0,0,0,0,0,-8.4518,-8.4621,-8.4654,-8.4816,-8.4846,-8.485,-8.4905,-8.4884,-8.4939,-8.4961,-8.4986,-8.5041,-8.5132,-8.5193,-8.5279,-8.5473,-8.5482,-8.5563,-8.559,-8.5612,-8.5632,-8.5735,-8.5771,-8.5389,-8.5389,-8.5388,0,0,-8.4621,-8.4659,-8.4726,-8.4843,-8.4883,-8.4988,-8.487,-8.4986,-8.5063,-8.4978,-8.5127,-8.5148,-8.5205,-8.5381,-8.546,-8.5405,-8.574,-8.5633,-8.565,-8.5659,-8.5756,-8.5792,-8.5824,-8.54,-8.5398,-8.5396,0,0,-8.4864,-8.4904,-8.5043,-8.5086,-8.5149,-8.515,-8.5183,-8.5232,-8.5243,-8.5392,-8.5331,-8.542,-8.5579,-8.5623,-8.5666,-8.5924,-8.5872,-8.5952,-8.6094,-8.6195,-8.6225,-8.6251,-8.6342,-8.6376,-8.5973,-8.5973,-8.5973,0,-8.4984,-8.5143,-8.5119,-8.5241,-8.5293,-8.5222,-8.5362,-8.5404,-8.5491,-8.5528,-8.5465,-8.5663,-8.5697,-8.5881,-8.5944,-8.5982,-8.6017,-8.5946,-8.6223,-8.6249,-8.6273,-8.636,-8.6394,-8.5982,-8.5981,-8.598,-8.5979,0,-8.5287,-8.5397,-8.5502,-8.559,-8.5654,-8.5783,-8.5777,-8.5844,-8.5818,-8.5824,-8.5976,-8.6014,-8.6106,-8.6148,-8.6123,-8.6329,-8.6293,-8.6228,-8.6116,-8.632,-8.64,-8.6433,-8.5996,-8.5992,-8.599,-8.5987,0,0,-8.5613,-8.5686,-8.5725,-8.5764,-8.5828,-8.5911,-8.6036,-8.6128,-8.6186,-8.6247,-8.6351,-8.6486,-8.6426,-8.6475,-8.6453,-8.6542,-8.6743,-8.6465,-8.6466,-8.6515,-8.697,-8.7019,-8.7058,-8.6708,-8.6714,-8.6719,-8.6965,0,-8.5858,-8.6079,-8.6061,-8.6268,-8.6369,-8.6303,-8.6411,-8.6461,-8.6471,-8.6555,-8.6564,-8.6661,-8.6575,-8.6603,-8.6688,-8.6701,-8.6834,-8.6682,-8.6802,-8.6807,-8.679,-8.71,-8.7153,-8.7383,-8.6997,-8.7002,-8.7006,0,-8.6173,-8.6248,-8.6467,-8.6515,-8.6556,-8.6655,-8.6737,-8.6819,-8.6873,-8.6873,-8.6928,-8.6891,-8.7015,-8.6901,-8.7069,-8.6967,-8.7014,-8.7028,-8.7036,-8.7046,-8.6919,-8.7118,-8.7456,-8.7491,-8.7056,-8.7052,-8.7048,0,-8.6389,-8.6544,-8.6695,-8.673,-8.6789,-8.686,-8.6888,-8.6935,-8.6991,-8.7061,-8.7097,-8.718,-8.7226,-8.729,-8.7276,-8.7194,-8.7448,-8.7332,-8.745,-8.7451,-8.7506,-8.7503,-8.7856,-8.7538,-8.7537,-8.7537,-8.7536,0,-8.6664,-8.68,-8.6792,-8.6885,-8.7034,-8.7011,-8.7159,-8.7178,-8.722,-8.7314,-8.726,-8.7349,-8.7325,-8.7411,-8.74,-8.7541,-8.7562,-8.7564,-8.7559,-8.7569,-8.7569,-8.76,-8.7583,-8.7546,-8.7544,-8.7542,-8.754,0,-8.693,-8.6931,-8.709,-8.7134,-8.7148,-8.7256,-8.7292,-8.7378,-8.7383,-8.7502,-8.7528,-8.7535,-8.7634,-8.7626,-8.7737,-8.7729,-8.7903,-8.788,-8.7886,-8.7881,-8.7998,-8.7987,-8.8383,-8.8433,-8.8083,-8.8087,-8.8089,0,-8.7106,-8.721,-8.7265,-8.7324,-8.7357,-8.7454,-8.7511,-8.7491,-8.7552,-8.7621,-8.7698,-8.7793,-8.7867,-8.8028,-8.8041,-8.8125,-8.8103,-8.8236,-8.8115,-8.8121,-8.8104,-8.8098,-8.8108,-8.826,-8.8263,-8.8267,-8.8269,0,-8.7418,-8.7413,-8.7498,-8.7584,-8.7654,-8.772,-8.7779,-8.7831,-8.7816,-8.7887,-8.7989,-8.8047,-8.816,-8.8254,-8.8334,-8.8359,-8.8312,-8.8307,-8.8339,-8.8349,-8.8349,-8.835,-8.795,-8.8298,-8.8295,-8.8293,-8.8292,-8.8291,-8.7644,-8.7732,-8.7785,-8.7881,-8.7924,-8.7982,-8.8065,-8.808,-8.8165,-8.8258,-8.8239,-8.8353,-8.8402,-8.8505,-8.8538,-8.8625,-8.8577,-8.8623,-8.8634,-8.8646,-8.8659,-8.8335,-8.864,-8.8639,-8.8638,-8.8637,-8.8637,0,-8.7952,-8.7983,-8.8072,-8.8158,-8.8233,-8.8184,-8.8247,-8.8313,-8.8415,-8.8465,-8.854,-8.8656,-8.8746,-8.8767,-8.8853,-8.8918,-8.8899,-8.8941,-8.8936,-8.8943,-8.8698,-8.8662,-8.8956,-8.8956,-8.8956,-8.8956,-8.8956,-8.8956,-8.8121,-8.8268,-8.8269,-8.8436,-8.8465,-8.8578,-8.8618,-8.8669,-8.871,-8.8842,-8.8918,-8.8931,-8.8969,-8.9057,-8.9137,-8.914,-8.9174,-8.9226,-8.9221,-8.8992,-8.896,-8.8929,-8.8895,-8.9234,-8.9234,-8.9458,-8.946,-8.9462]}]]